Погода в Боровиках

Беларусь     53°31′20″N   25°28′41″E
темп.,
°C
ветер,
м/с
пор.,
м/с
влажн.,
%
обл.,
%
осадки,
мм/ч
давл.,
гПа
погр.,
м
18 мая, ср
ср1800:00+2ссз412845 0.0 1021346
03:00+2ссз411895 0.0 1023309
06:00+1ссз411945 0.0 1024299
09:00+7ссз696832 0.0 10251041
12:00+11с685546 0.0 10261483
15:00+14ссз674914 0.0 10251753
18:00+14ссз57545 0.0 10251630
21:00+9сз33755 0.0 102632
19 мая, чт
чт1900:00+6сз35860 0.0 102781
03:00+4зсз338968 0.0 102745
06:00+4з3587100 0.0 1026103
09:00+11з476872 0.0 1026413
12:00+16з675097 0.0 10251057
15:00+17з6745100 0.0 10231229
18:00+17з5756100 0.0 1022831
21:00+13зюз3773100 0.0 1022131
20 мая, пт
пт2000:00+11зюз347890 0.0 102165
03:00+12юз256996 0.0 1020100
06:00+12ююз3771100 0.0 1019149
09:00+13ююз4974100 0.0 1017265
12:00+20зюз7105944 0.0 1014893
15:00+21з10146434 0.3 10121734
18:00+18зсз91570100 0.2 10121517
21:00+13сз10148399 0.4 1012992
21 мая, сб
сб2100:00+9ссз81484100 0.0 1015799
03:00+9ссв51180100 0.0 1016771
06:00+6с26968 0.0 1017239
09:00+10в577299 0.0 1015558
12:00+14юв5657100 0.0 10141074
15:00+14юв6760100 0.0 10121201
18:00+11вюв71285100 1.9 1008588
21:00+10вюв61296100 8.3 1007587
22 мая, вс
вс2200:00+10юв5997100 2.4 1006628
03:00+10зсз4898100 4.2 1005537
06:00+9сз2498100 0.3 1004382
09:00+8всв5995100 0.3 1006517
12:00+9св4794100 0.0 1008747
15:00+8св5893100 0.0 1009624
18:00+8св4895100 0.5 1011447
21:00+8всв3796100 1.3 1012386